Weather History for KGIC - August, 2014

Change the Weather History Date:

Sunday, August 10, 2014

  Actual Average (KLWS) Record (KLWS)
Temperature  
Mean Temperature 72 °F 76 °F  
Max Temperature 91 °F 91 °F 106 °F (1996)
Min Temperature 52 °F 61 °F 46 °F (1954)
Degree Days  
Heating Degree Days 0 0  
Month to date heating degree days 0  
Since 1 June heating degree days 77  
Since 1 July heating degree days 7  
Cooling Degree Days 6 11  
Month to date cooling degree days 112  
Year to date cooling degree days 542  
Since 1 June cooling degree days 510  
Growing Degree Days 22 (Base 50)    
Moisture  
Dew Point 34 °F    
Average Humidity 29    
Maximum Humidity 51    
Minimum Humidity 13    
Precipitation  
Precipitation 0.00 in 0.03 in 0.57 in (1985)
Month to date precipitation 0.18  
Year to date precipitation 8.02  
Snow  
Snow 0.00 in 0.00 in - ()
Month to date snowfall 0.0  
Since 1 June snowfall 0.0  
Since 1 July snowfall 0.0  
Snow Depth -    
Sea Level Pressure  
Sea Level Pressure 30.18 in    
Wind  
Wind Speed 2 mph (ENE)    
Max Wind Speed 10 mph    
Max Gust Speed -    
Visibility 9 miles    
Events      
T = Trace of Precipitation, MM = Missing Value Source: NWS Daily Summary

Daily Weather History Graph

Daily Weather History Graph

Search for Another Location

Airport or City:

Trip Planner

Search our weather history database for the weather conditions in past years. The results will help you decide how hot, cold, wet, or windy it might be!

Date:

Astronomy

Aug. 10, 2014 Rise Set
Actual Time 5:38 AM PDT 8:00 PM PDT
Civil Twilight 5:04 AM PDT 8:33 PM PDT
Nautical Twilight 4:23 AM PDT 9:15 PM PDT
Astronomical Twilight 3:36 AM PDT 10:01 PM PDT
Moon 7:45 PM PDT (8/10) 5:38 AM PDT (8/10)
Length of Visible Light 15h 29m
Length of Day
14h 22m
Full, 100% of the Moon is Illuminated
Aug 10
Full
Aug 17
Last Quarter
Aug 25
New
Sep 2
First Quarter
Sep 8
Full

Hourly Weather History & Observations

Time (PDT) Temp. Dew Point Humidity Pressure Visibility Wind Dir Wind Speed Gust Speed Precip Events Conditions
12:15 AM 59.2 °F 30.9 °F 34% 30.18 in 10.0 mi Calm Calm - N/A   Clear
12:35 AM 57.7 °F 31.8 °F 37% 30.18 in 10.0 mi South 3.5 mph - N/A   Clear
12:55 AM 56.7 °F 31.6 °F 39% 30.17 in 10.0 mi South 4.6 mph - N/A   Clear
1:15 AM 55.4 °F 31.6 °F 40% 30.18 in 10.0 mi Calm Calm - N/A   Clear
1:35 AM 57.4 °F 30.6 °F 36% 30.17 in 10.0 mi Calm Calm - N/A   Clear
1:55 AM 57.2 °F 31.5 °F 38% 30.18 in 10.0 mi South 3.5 mph - N/A   Clear
2:15 AM 55.8 °F 32.2 °F 41% 30.18 in 10.0 mi Calm Calm - N/A   Clear
2:35 AM 54.0 °F 32.4 °F 44% 30.18 in 10.0 mi South 4.6 mph - N/A   Clear
2:55 AM 54.9 °F 32.0 °F 42% 30.18 in 10.0 mi Calm Calm - N/A   Clear
3:15 AM 54.1 °F 32.0 °F 43% 30.18 in 10.0 mi Calm Calm - N/A   Clear
3:35 AM 55.2 °F 31.8 °F 41% 30.18 in 10.0 mi Calm Calm - N/A   Clear
3:55 AM 56.7 °F 31.8 °F 39% 30.18 in 10.0 mi Calm Calm - N/A   Clear
4:15 AM 53.8 °F 33.3 °F 46% 30.19 in 10.0 mi Calm Calm - N/A   Clear
4:35 AM 52.7 °F 33.6 °F 48% 30.19 in 10.0 mi Calm Calm - N/A   Clear
4:55 AM 52.0 °F 34.3 °F 51% 30.19 in 10.0 mi Calm Calm - N/A   Clear
5:15 AM 53.4 °F 33.1 °F 46% 30.19 in 10.0 mi South 4.6 mph - N/A   Clear
5:35 AM 52.7 °F 33.3 °F 48% 30.20 in 10.0 mi SSW 4.6 mph - N/A   Clear
5:55 AM 53.1 °F 32.9 °F 46% 30.20 in 10.0 mi Calm Calm - N/A   Clear
6:15 AM 53.2 °F 33.6 °F 47% 30.20 in 10.0 mi Calm Calm - N/A   Clear
6:35 AM 52.3 °F 34.0 °F 50% 30.21 in 10.0 mi Calm Calm - N/A   Clear
6:55 AM 54.5 °F 36.1 °F 50% 30.21 in 10.0 mi Calm Calm - N/A   Clear
7:15 AM 57.4 °F 38.3 °F 49% 30.22 in 10.0 mi Calm Calm - N/A   Clear
7:35 AM 61.9 °F 38.7 °F 42% 30.22 in 10.0 mi Calm Calm - N/A   Clear
7:55 AM 64.4 °F 37.6 °F 37% 30.22 in 10.0 mi Calm Calm - N/A   Clear
8:15 AM 66.9 °F 35.8 °F 32% 30.22 in 10.0 mi Calm Calm - N/A   Clear
8:35 AM 68.5 °F 32.7 °F 27% 30.23 in 10.0 mi Calm Calm - N/A   Clear
8:55 AM 69.6 °F 32.4 °F 25% 30.23 in 10.0 mi Calm Calm - N/A   Clear
9:15 AM 71.1 °F 32.7 °F 24% 30.23 in 10.0 mi NE 3.5 mph - N/A   Clear
9:35 AM 71.8 °F 33.6 °F 25% 30.24 in 10.0 mi NE 3.5 mph - N/A   Clear
9:55 AM 72.9 °F 35.4 °F 25% 30.24 in 7.0 mi Calm Calm - N/A   Clear
10:15 AM 73.4 °F 37.0 °F 27% 30.24 in 10.0 mi Calm Calm - N/A   Clear
10:35 AM 74.8 °F 37.8 °F 26% 30.24 in 7.0 mi Calm Calm - N/A   Clear
10:55 AM 76.3 °F 37.8 °F 25% 30.24 in 10.0 mi NE 3.5 mph - N/A   Clear
11:15 AM 78.1 °F 37.6 °F 23% 30.23 in 7.0 mi East 3.5 mph - N/A   Clear
11:35 AM 79.2 °F 36.7 °F 22% 30.22 in 7.0 mi East 4.6 mph - N/A   Clear
11:55 AM 79.7 °F 35.8 °F 21% 30.22 in 5.0 mi NE 5.8 mph - N/A   Clear
12:15 PM 81.3 °F 35.1 °F 19% 30.22 in 3.0 mi ENE 4.6 mph - N/A   Clear
12:35 PM 82.8 °F 33.8 °F 17% 30.21 in 3.0 mi Calm Calm - N/A   Clear
12:55 PM 84.6 °F 32.7 °F 16% 30.21 in 4.0 mi Calm Calm - N/A   Clear
1:15 PM 84.9 °F 32.4 °F 15% 30.21 in 4.0 mi ENE 4.6 mph - N/A   Clear
1:35 PM 86.5 °F 32.7 °F 15% 30.20 in 4.0 mi NNE 6.9 mph - N/A   Clear
1:55 PM 87.8 °F 32.5 °F 14% 30.20 in 4.0 mi NNE 5.8 mph - N/A   Clear
2:15 PM 88.2 °F 32.5 °F 14% 30.19 in 3.0 mi NNE 4.6 mph - N/A   Clear
2:35 PM 88.9 °F 32.7 °F 13% 30.19 in 4.0 mi East 8.1 mph - N/A   Clear
2:55 PM 89.8 °F 32.0 °F 13% 30.18 in 5.0 mi NE 6.9 mph - N/A   Clear
3:15 PM 90.3 °F 32.9 °F 13% 30.17 in 7.0 mi East 8.1 mph - N/A   Clear
3:35 PM 90.3 °F 33.8 °F 13% 30.17 in 7.0 mi East 4.6 mph - N/A   Clear
3:55 PM 90.3 °F 34.5 °F 14% 30.16 in 7.0 mi NE 8.1 mph - N/A   Clear
4:35 PM 91.6 °F 34.2 °F 13% 30.15 in 10.0 mi ENE 8.1 mph - N/A   Clear
4:55 PM 91.0 °F 34.2 °F 13% 30.15 in 10.0 mi ENE 5.8 mph - N/A   Clear
5:15 PM 90.9 °F 34.0 °F 13% 30.14 in 10.0 mi ENE 8.1 mph - N/A   Clear
5:35 PM 90.5 °F 33.6 °F 13% 30.13 in 10.0 mi East 9.2 mph - N/A   Clear
5:55 PM 89.8 °F 33.4 °F 13% 30.12 in 10.0 mi NE 10.4 mph - N/A   Clear
6:15 PM 89.2 °F 33.8 °F 14% 30.12 in 10.0 mi NNE 6.9 mph - N/A   Clear
6:35 PM 87.6 °F 33.6 °F 15% 30.12 in 10.0 mi NNE 5.8 mph - N/A   Clear
6:55 PM 85.1 °F 33.4 °F 16% 30.13 in 10.0 mi NNE 5.8 mph - N/A   Clear
7:15 PM 82.6 °F 34.3 °F 18% 30.13 in 10.0 mi NNE 4.6 mph - N/A   Clear
7:35 PM 81.0 °F 34.7 °F 19% 30.13 in 10.0 mi NNE 4.6 mph - N/A   Clear
7:55 PM 78.8 °F 34.9 °F 20% 30.13 in 10.0 mi NNE 3.5 mph - N/A   Clear
8:15 PM 74.5 °F 35.1 °F 24% 30.13 in 10.0 mi Calm Calm - N/A   Clear
8:55 PM 72.5 °F 36.9 °F 27% 30.15 in 10.0 mi SSE 4.6 mph - N/A   Clear
9:35 PM 69.3 °F 37.4 °F 31% 30.15 in 10.0 mi SSE 5.8 mph - N/A   Clear
9:55 PM 68.9 °F 37.6 °F 32% 30.15 in 10.0 mi Calm Calm - N/A   Clear
10:15 PM 69.8 °F 38.3 °F 32% 30.15 in 10.0 mi Calm Calm - N/A   Clear
10:35 PM 69.6 °F 38.5 °F 32% 30.15 in 10.0 mi Calm Calm - N/A   Clear
10:55 PM 68.5 °F 38.7 °F 34% 30.14 in 10.0 mi Calm Calm - N/A   Clear
11:15 PM 68.4 °F 39.0 °F 34% 30.15 in 10.0 mi Calm Calm - N/A   Clear
11:35 PM 66.9 °F 39.0 °F 36% 30.15 in 10.0 mi Calm Calm - N/A   Clear